Weather History for St. Cloud, MN

Change the Weather History Date:

Friday, July 19, 2013

  Actual Average Record
Temperature  
Mean Temperature 74 °F 71 °F  
Max Temperature 84 °F 83 °F 101 °F (1934)
Min Temperature 63 °F 59 °F 43 °F (2009)
Degree Days  
Heating Degree Days 0 0  
Month to date heating degree days 0 13  
Since 1 June heating degree days 87 91  
Since 1 July heating degree days 0 13  
Cooling Degree Days 9 6  
Month to date cooling degree days 191 113  
Year to date cooling degree days 301 233  
Since 1 June cooling degree days 290 208  
Growing Degree Days 24 (Base 50)    
Moisture  
Dew Point 61 °F    
Average Humidity 60    
Maximum Humidity 82    
Minimum Humidity 37    
Precipitation  
Precipitation 0.14 in 0.10 in 1.98 in (1997)
Month to date precipitation 1.14 2.07  
Year to date precipitation 19.19 14.55  
Snow  
Snow 0.00 in 0.00 in 0.00 in ()
Month to date snowfall 0.0 0.0  
Since 1 June snowfall 0.0 0.0  
Since 1 July snowfall 0.0 0.0  
Snow Depth 0.00 in    
Sea Level Pressure  
Sea Level Pressure 29.84 in    
Wind  
Wind Speed 11 mph (WNW)    
Max Wind Speed 30 mph    
Max Gust Speed 43 mph    
Visibility 9 miles    
Events Rain , Thunderstorm    
T = Trace of Precipitation, MM = Missing Value Source: NWS Daily Summary

Daily Weather History Graph

Daily Weather History Graph

Search for Another Location

Airport:

Trip Planner

Search our weather history database for the weather conditions in past years. The results will help you decide how hot, cold, wet, or windy it might be!

Date:

Astronomy

Jul. 19, 2013 Rise Set
Actual Time 5:46 AM CDT 8:58 PM CDT
Civil Twilight 5:10 AM CDT 9:34 PM CDT
Nautical Twilight 4:23 AM CDT 10:20 PM CDT
Astronomical Twilight 3:25 AM CDT 11:17 PM CDT
Moon 6:01 PM CDT (7/19) 2:28 AM CDT (7/19)
Length of Visible Light 16h 24m
Length of Day
15h 12m
Waxing Gibbous, 87% of the Moon is Illuminated
Jul 19
Waxing Gibbous
Jul 22
Full
Jul 29
Last Quarter
Aug 6
New
Aug 14
First Quarter

Hourly Weather History & Observations

Time (CDT) Temp. Heat Index Dew Point Humidity Pressure Visibility Wind Dir Wind Speed Gust Speed Precip Events Conditions
12:53 AM 82.0 °F 85.5 °F 69.1 °F 65% 29.73 in 10.0 mi WSW 13.8 mph 23.0 mph N/A   Scattered Clouds
1:53 AM 80.1 °F 83.2 °F 70.0 °F 71% 29.74 in 10.0 mi West 9.2 mph - N/A   Clear
2:53 AM 77.0 °F - 70.0 °F 79% 29.73 in 10.0 mi West 8.1 mph - N/A   Clear
3:53 AM 77.0 °F - 70.0 °F 79% 29.72 in 10.0 mi WNW 9.2 mph - N/A   Clear
4:53 AM 75.9 °F - 69.1 °F 79% 29.72 in 10.0 mi West 9.2 mph - N/A   Clear
5:53 AM 75.0 °F - 66.9 °F 76% 29.75 in 10.0 mi WNW 11.5 mph - N/A   Clear
6:53 AM 73.9 °F - 62.1 °F 66% 29.78 in 10.0 mi WNW 13.8 mph - N/A   Clear
7:53 AM 73.9 °F - 61.0 °F 64% 29.80 in 10.0 mi NW 10.4 mph 21.9 mph N/A   Clear
8:53 AM 73.9 °F - 60.1 °F 62% 29.83 in 10.0 mi NNW 16.1 mph 25.3 mph N/A   Clear
9:53 AM 73.0 °F - 59.0 °F 61% 29.86 in 10.0 mi NW 16.1 mph 28.8 mph N/A   Scattered Clouds
10:53 AM 77.0 °F - 57.9 °F 52% 29.87 in 10.0 mi NNW 15.0 mph 23.0 mph N/A   Clear
11:53 AM 80.1 °F 80.2 °F 55.9 °F 43% 29.88 in 10.0 mi NW 11.5 mph 19.6 mph N/A   Clear
12:53 PM 80.1 °F 80.2 °F 55.9 °F 43% 29.88 in 10.0 mi NNW 9.2 mph - N/A   Clear
1:53 PM 82.0 °F 81.6 °F 55.9 °F 41% 29.88 in 10.0 mi NW 17.3 mph 21.9 mph N/A   Partly Cloudy
2:53 PM 84.0 °F 83.0 °F 55.9 °F 38% 29.88 in 10.0 mi NW 16.1 mph 21.9 mph N/A   Scattered Clouds
3:53 PM 82.9 °F 82.4 °F 57.0 °F 41% 29.88 in 10.0 mi NW 13.8 mph 19.6 mph N/A   Partly Cloudy
4:53 PM 82.9 °F 82.1 °F 55.9 °F 39% 29.87 in 10.0 mi WNW 15.0 mph 18.4 mph N/A   Partly Cloudy
5:53 PM 82.0 °F 81.6 °F 55.9 °F 41% 29.87 in 10.0 mi NW 12.7 mph - N/A   Clear
6:53 PM 81.0 °F 81.0 °F 57.0 °F 44% 29.86 in 10.0 mi NNW 6.9 mph - N/A   Clear
7:53 PM 79.0 °F - 57.0 °F 47% 29.86 in 10.0 mi WNW 8.1 mph - N/A   Clear
8:53 PM 73.9 °F - 57.9 °F 57% 29.86 in 10.0 mi WSW 4.6 mph - N/A   Clear
9:53 PM 72.0 °F - 60.1 °F 66% 29.89 in 10.0 mi WSW 5.8 mph - N/A   Scattered Clouds
10:14 PM 71.6 °F - 60.8 °F 69% 29.88 in 10.0 mi WSW 5.8 mph - N/A Thunderstorm Thunderstorm
10:35 PM 64.4 °F - 60.8 °F 88% 29.92 in 2.0 mi NNW 13.8 mph 34.5 mph N/A Rain , Thunderstorm Heavy Thunderstorms and Rain
10:44 PM 64.4 °F - 60.8 °F 88% 29.91 in 6.0 mi Variable 5.8 mph 19.6 mph N/A Rain , Thunderstorm Heavy Thunderstorms and Rain
10:53 PM 64.0 °F - 61.0 °F 90% 29.92 in 5.0 mi West 5.8 mph - 0.13 in Rain Rain
11:03 PM 64.4 °F - 62.6 °F 94% 29.89 in 8.0 mi SSW 5.8 mph - 0.01 in Rain , Thunderstorm Light Rain
11:23 PM 64.4 °F - 62.6 °F 94% 29.90 in 10.0 mi West 4.6 mph - 0.01 in   Scattered Clouds
11:53 PM 64.0 °F - 61.0 °F 90% 29.91 in 10.0 mi WSW 3.5 mph - 0.01 in   Scattered Clouds